This is the latest recevied weather packets stored in our database for station/object I3LPO-3. If no packets are shown the sender has not sent any weather packets the latest 10 day(s).
| Time | Temp. | Humidity | Pressure | Rain* | Wind** | Luminosity | Snow |
|---|---|---|---|---|---|---|---|
| 1777386656 | 23.89° C | 39% | 1015.7 hPa | - | - | - | - |
| 1777385455 | 23.89° C | 39% | 1015.7 hPa | - | - | - | - |
| 1777384253 | 24.44° C | 39% | 1015.9 hPa | - | - | - | - |
| 1777383052 | 23.89° C | 40% | 1016.1 hPa | - | - | - | - |
| 1777381851 | 24.44° C | 40% | 1016.2 hPa | - | - | - | - |
| 1777380650 | 25° C | 40% | 1016.2 hPa | - | - | - | - |
| 1777379448 | 25° C | 40% | 1016.3 hPa | - | - | - | - |
| 1777378247 | 26.11° C | 40% | 1016.2 hPa | - | - | - | - |
| 1777377046 | 27.22° C | 40% | 1016.3 hPa | - | - | - | - |
| 1777375845 | 27.78° C | 39% | 1016.4 hPa | - | - | - | - |
| 1777374643 | 27.78° C | 39% | 1016.5 hPa | - | - | - | - |
| 1777373441 | 27.78° C | 39% | 1016.8 hPa | - | - | - | - |
| 1777372240 | 27.22° C | 39% | 1016.9 hPa | - | - | - | - |
| 1777371038 | 27.78° C | 38% | 1017 hPa | - | - | - | - |
| 1777369837 | 26.67° C | 38% | 1017.3 hPa | - | - | - | - |
| 1777368636 | 25.56° C | 39% | 1017.5 hPa | - | - | - | - |
| 1777367435 | 24.44° C | 39% | 1017.8 hPa | - | - | - | - |
| 1777366233 | 23.33° C | 39% | 1017.8 hPa | - | - | - | - |
| 1777365337 | 23.33° C | 39% | 1017.6 hPa | - | - | - | - |
| 1777364134 | 23.33° C | 40% | 1017.4 hPa | - | - | - | - |
| 1777362930 | 24.44° C | 39% | 1017.2 hPa | - | - | - | - |
| 1777361727 | 23.89° C | 39% | 1017.2 hPa | - | - | - | - |
| 1777360523 | 23.33° C | 38% | 1017.3 hPa | - | - | - | - |
| 1777359320 | 22.22° C | 38% | 1017.4 hPa | - | - | - | - |
| 1777358118 | 20° C | 38% | 1017.6 hPa | - | - | - | - |
* Rain since midnight (hover to see other rain measurements)
** Current wind speed in m/s (hover to see current wind gust speed)